FW2888 Fredericksburg VA US current weather conditions

sailwx.info

Wind from 299 at 5 knots gusting 12

Air temperature 7.2° C
Dewpoint -1.5° C

Last reported at 2020-Jan-28 21:03 UTC.
Time now 2020-Jan-28 22:07 UTC

Location: N 38°20' W 077°24'.
View on Google Maps.

See reports from other nearby stations

  
Tides and Currents Weather Stations Pressure Air Temp Water Temp Dewpoint Dewpoint Depression Visibility Wind Speed Wind Dir Waves Ship Positions
date/time (UTC)wind fromknots sea level pressurealtimeterstation pressurevisibilityair tempwater tempwave heightnotes
2020-Jan-28 21:03 299 5 gusting 12 7.2
2020-Jan-28 20:58 346 5 gusting 9 7.2
2020-Jan-28 20:53 311 4 gusting 8 7.2
2020-Jan-28 20:48 304 4 gusting 7 7.2
2020-Jan-28 20:43 333 5 gusting 9 7.2
2020-Jan-28 20:38 320 5 gusting 9 7.2
2020-Jan-28 20:33 315 4 gusting 10 7.2
2020-Jan-28 20:28 304 4 gusting 10 7.2
2020-Jan-28 20:23 304 4 gusting 8 7.2
2020-Jan-28 20:18 316 3 gusting 7 7.8
2020-Jan-28 20:13 326 3 gusting 7 7.2
2020-Jan-28 20:08 330 4 gusting 9 7.2
2020-Jan-28 20:03 327 4 gusting 9 7.8
2020-Jan-28 19:58 015 4 gusting 8 7.8
2020-Jan-28 19:53 307 3 gusting 8 7.8
2020-Jan-28 19:48 308 4 gusting 6 7.8
2020-Jan-28 19:43 311 5 gusting 12 7.8
2020-Jan-28 19:38 297 5 gusting 12 7.2
2020-Jan-28 19:33 331 4 gusting 8 7.2
2020-Jan-28 19:28 014 3 gusting 7 7.2
2020-Jan-28 19:23 319 3 gusting 9 7.2
2020-Jan-28 19:18 316 3 gusting 9 7.2
2020-Jan-28 19:13 298 3 gusting 7 7.2
2020-Jan-28 19:08 347 4 gusting 10 7.2
2020-Jan-28 19:03 314 5 gusting 10 7.2
2020-Jan-28 18:58 326 6 gusting 11 7.2
2020-Jan-28 18:53 333 4 gusting 11 6.7
2020-Jan-28 18:48 350 3 gusting 8 7.2
2020-Jan-28 18:43 066 3 gusting 7 6.7
2020-Jan-28 18:38 304 3 gusting 8 6.7
2020-Jan-28 18:33 319 3 gusting 8 6.7
2020-Jan-28 18:28 338 4 gusting 8 7.2
2020-Jan-28 18:23 348 4 gusting 11 7.2
2020-Jan-28 18:18 285 4 gusting 11 7.2
2020-Jan-28 18:13 312 4 gusting 7 7.2
2020-Jan-28 18:08 316 4 gusting 12 7.2
2020-Jan-28 18:03 319 5 gusting 12 7.2
2020-Jan-28 17:58 354 5 gusting 12 7.2
2020-Jan-28 17:53 347 4 gusting 9 7.8
2020-Jan-28 17:47 290 4 gusting 7 7.8
2020-Jan-28 17:42 308 4 gusting 8 7.8
2020-Jan-28 17:37 297 4 gusting 8 7.8
2020-Jan-28 17:32 355 4 gusting 9 7.8
2020-Jan-28 17:27 291 5 gusting 11 7.8
2020-Jan-28 17:22 291 3 gusting 11 7.8
2020-Jan-28 17:17 315 2 gusting 6 7.8
2020-Jan-28 17:12 301 3 gusting 6 7.2
2020-Jan-28 17:07 319 3 gusting 9 6.7
2020-Jan-28 17:02 280 4 gusting 13 6.7
2020-Jan-28 16:57 326 5 gusting 13 6.7
2020-Jan-28 16:52 326 5 gusting 13 6.7
2020-Jan-28 16:47 287 5 gusting 12 6.7
2020-Jan-28 16:42 301 5 gusting 12 6.7
2020-Jan-28 16:37 285 4 gusting 12 6.7
2020-Jan-28 16:32 321 4 gusting 11 6.7
2020-Jan-28 16:27 298 5 gusting 11 6.7
2020-Jan-28 16:22 332 6 gusting 15 6.7
2020-Jan-28 16:17 301 6 gusting 15 6.7
2020-Jan-28 16:12 314 5 gusting 12 7.2
2020-Jan-28 16:07 298 6 gusting 15 7.2
2020-Jan-28 16:02 326 6 gusting 15 7.2
2020-Jan-28 15:57 302 4 gusting 13 7.2
2020-Jan-28 15:52 295 4 gusting 12 7.2
2020-Jan-28 15:47 298 5 gusting 13 7.2
2020-Jan-28 15:42 311 4 gusting 13 7.2
2020-Jan-28 15:37 340 4 gusting 12 7.2
2020-Jan-28 15:32 043 5 gusting 12 7.2
2020-Jan-28 15:27 020 6 gusting 12 7.2
2020-Jan-28 15:22 300 5 gusting 11 6.7
2020-Jan-28 15:17 315 4 gusting 9 6.7
2020-Jan-28 15:12 326 4 gusting 9 6.1
2020-Jan-28 15:07 314 4 gusting 8 6.1
2020-Jan-28 15:02 318 3 gusting 8 6.1
2020-Jan-28 14:57 295 2 gusting 6 6.1
2020-Jan-28 14:52 354 1 gusting 4 5.6
2020-Jan-28 14:47 311 2 gusting 5 5.6
2020-Jan-28 14:42 311 3 gusting 8 5.6
2020-Jan-28 14:37 295 3 gusting 8 5.6
2020-Jan-28 14:32 333 4 gusting 6 5.6
2020-Jan-28 14:27 330 4 gusting 7 5.6
2020-Jan-28 14:22 309 3 gusting 7 5.6
2020-Jan-28 14:17 274 3 gusting 6 5.0
2020-Jan-28 14:12 259 3 gusting 6 5.0
2020-Jan-28 14:07 336 3 gusting 6 5.0
2020-Jan-28 14:02 290 3 gusting 6 5.0
2020-Jan-28 13:57 317 2 gusting 5 5.0
2020-Jan-28 13:52 287 2 gusting 6 4.4
2020-Jan-28 13:47 300 2 gusting 6 4.4
2020-Jan-28 13:42 319 2 gusting 4 4.4
2020-Jan-28 13:37 297 2 gusting 4 4.4
2020-Jan-28 13:32 288 2 gusting 5 4.4
2020-Jan-28 13:27 330 3 gusting 6 4.4
2020-Jan-28 13:22 324 3 gusting 7 4.4
2020-Jan-28 13:17 308 2 gusting 7 4.4
2020-Jan-28 13:12 316 2 gusting 6 4.4
2020-Jan-28 13:07 285 2 gusting 6 3.9
2020-Jan-28 13:02 319 1 gusting 5 3.9
2020-Jan-28 12:57 321 1 gusting 5 3.9
2020-Jan-28 12:52 320 0 gusting 3 3.9
2020-Jan-28 12:47 313 1 gusting 5 3.9
2020-Jan-28 12:42 323 0 gusting 5 3.9
2020-Jan-28 12:37 315 0 gusting 2 3.9
2020-Jan-28 12:32 315 0 gusting 3 3.9
2020-Jan-28 12:27 304 1 gusting 4 3.9
2020-Jan-28 12:22 290 0 gusting 4 3.9
2020-Jan-28 12:17 315 1 gusting 3 3.9
2020-Jan-28 12:12 293 1 gusting 3 3.9
2020-Jan-28 12:07 319 1 gusting 3 3.9
2020-Jan-28 12:01 335 1 gusting 4 3.9
2020-Jan-28 11:56 321 1 gusting 4 3.9
2020-Jan-28 11:51 316 1 gusting 3 3.9
2020-Jan-28 11:46 315 1 gusting 2 3.9
2020-Jan-28 11:41 288 1 gusting 3 3.9
2020-Jan-28 11:36 318 1 gusting 4 3.9
2020-Jan-28 11:31 290 2 gusting 4 3.9
2020-Jan-28 11:26 315 1 gusting 4 3.9
2020-Jan-28 11:21 326 1 gusting 3 3.9
2020-Jan-28 11:16 304 1 gusting 3 3.9
2020-Jan-28 11:11 309 1 gusting 3 3.9
2020-Jan-28 11:06 309 1 gusting 5 3.9
2020-Jan-28 11:01 291 1 gusting 5 3.9
2020-Jan-28 10:56 298 2 gusting 4 3.9
2020-Jan-28 10:51 291 2 gusting 5 3.9
2020-Jan-28 10:46 315 2 gusting 5 3.9
2020-Jan-28 10:41 319 2 gusting 5 3.9
2020-Jan-28 10:36 319 2 gusting 6 3.9
2020-Jan-28 10:31 329 2 gusting 6 3.9
2020-Jan-28 10:26 303 1 gusting 4 3.9
2020-Jan-28 10:21 330 2 gusting 4 3.9
2020-Jan-28 10:16 323 2 gusting 5 4.4
2020-Jan-28 10:11 316 2 gusting 5 4.4
2020-Jan-28 10:06 304 2 gusting 6 4.4
2020-Jan-28 10:01 307 2 gusting 6 4.4
2020-Jan-28 09:56 290 2 gusting 5 3.9
2020-Jan-28 09:51 348 1 gusting 5 3.9
2020-Jan-28 09:46 319 1 gusting 3 3.9
2020-Jan-28 09:41 326 2 gusting 4 3.9
2020-Jan-28 09:36 323 1 gusting 4 3.9
2020-Jan-28 09:31 317 1 gusting 4 4.4
2020-Jan-28 09:26 281 1 gusting 3 3.9
2020-Jan-28 09:21 309 1 gusting 4 4.4
2020-Jan-28 09:16 326 1 gusting 5 4.4
2020-Jan-28 09:11 284 1 gusting 5 4.4
2020-Jan-28 09:06 284 1 gusting 4 4.4
2020-Jan-28 09:01 308 1 gusting 5 4.4
2020-Jan-28 08:56 293 2 gusting 5 4.4
2020-Jan-28 08:51 317 2 gusting 5 4.4
2020-Jan-28 08:46 329 2 gusting 5 4.4
2020-Jan-28 08:41 297 2 gusting 5 4.4
2020-Jan-28 08:36 316 2 gusting 6 4.4
2020-Jan-28 08:31 270 2 gusting 6 4.4
2020-Jan-28 08:26 006 3 gusting 7 4.4
2020-Jan-28 08:21 316 3 gusting 7 4.4
2020-Jan-28 08:16 310 3 gusting 6 4.4
2020-Jan-28 08:11 330 3 gusting 8 4.4
2020-Jan-28 08:06 306 3 gusting 8 4.4
2020-Jan-28 08:01 314 3 gusting 7 4.4
2020-Jan-28 07:56 312 3 gusting 8 4.4
2020-Jan-28 07:50 329 3 gusting 8 4.4
2020-Jan-28 07:45 309 3 gusting 8 4.4
2020-Jan-28 07:40 283 3 gusting 8 4.4
2020-Jan-28 07:35 356 4 gusting 7 4.4
2020-Jan-28 07:30 319 3 gusting 6 4.4
2020-Jan-28 07:25 327 2 gusting 6 4.4
2020-Jan-28 07:20 295 3 gusting 6 4.4
2020-Jan-28 07:15 324 3 gusting 7 4.4
2020-Jan-28 07:10 315 3 gusting 7 4.4
2020-Jan-28 07:05 311 3 gusting 6 4.4
2020-Jan-28 07:00 297 3 gusting 6 4.4
2020-Jan-28 06:55 307 3 gusting 6 4.4
2020-Jan-28 06:50 324 3 gusting 6 4.4
2020-Jan-28 06:45 323 2 gusting 6 4.4
2020-Jan-28 06:40 300 1 gusting 5 4.4
2020-Jan-28 06:35 317 2 gusting 5 4.4
2020-Jan-28 06:30 297 2 gusting 5 4.4
2020-Jan-28 06:25 308 2 gusting 5 4.4
2020-Jan-28 06:20 338 2 gusting 5 4.4
2020-Jan-28 06:15 311 2 gusting 6 4.4
2020-Jan-28 06:10 312 1 gusting 6 4.4
2020-Jan-28 06:05 023 1 gusting 4 4.4
2020-Jan-28 06:00 333 2 gusting 5 4.4
2020-Jan-28 05:55 340 1 gusting 5 4.4
2020-Jan-28 05:50 333 2 gusting 4 5.0
2020-Jan-28 05:45 330 2 gusting 6 5.0
2020-Jan-28 05:40 311 2 gusting 6 5.0
2020-Jan-28 05:35 311 2 gusting 4 5.0
2020-Jan-28 05:30 342 1 gusting 4 5.0
2020-Jan-28 05:25 321 1 gusting 3 5.0
2020-Jan-28 05:20 324 2 gusting 3 5.0
2020-Jan-28 05:15 313 1 gusting 3 5.0
2020-Jan-28 05:10 314 0 gusting 3 5.0
2020-Jan-28 05:05 324 0 gusting 2 5.0
2020-Jan-28 05:00 311 0 gusting 2 5.0
2020-Jan-28 04:55 320 0 gusting 2 5.0
2020-Jan-28 04:50 308 0 gusting 2 5.0
2020-Jan-28 04:45 339 0 gusting 3 5.0
2020-Jan-28 04:40 308 0 gusting 3 5.0
2020-Jan-28 04:35 314 1 gusting 3 5.6
2020-Jan-28 04:30 316 1 gusting 4 5.6
2020-Jan-28 04:25 317 1 gusting 5 5.6
2020-Jan-28 04:20 306 1 gusting 6 5.6
2020-Jan-28 04:15 297 1 gusting 6 5.6
2020-Jan-28 04:10 329 2 gusting 4 5.6
2020-Jan-28 04:05 324 2 gusting 5 5.6
2020-Jan-28 04:00 330 2 gusting 5 5.6
2020-Jan-28 03:55 301 2 gusting 4 5.6
2020-Jan-28 03:50 314 2 gusting 4 5.6
2020-Jan-28 03:45 327 2 gusting 4 5.6
2020-Jan-28 03:39 323 2 gusting 6 5.6
2020-Jan-28 03:34 306 2 gusting 6 5.6
2020-Jan-28 03:29 316 2 gusting 5 5.6
2020-Jan-28 03:24 309 3 gusting 8 5.6
2020-Jan-28 03:19 302 4 gusting 9 5.6
2020-Jan-28 03:14 014 5 gusting 12 5.6
2020-Jan-28 03:09 309 5 gusting 12 5.6
2020-Jan-28 03:04 327 3 gusting 8 5.6
2020-Jan-28 02:59 326 2 gusting 5 5.6
2020-Jan-28 02:54 326 1 gusting 5 5.6
2020-Jan-28 02:49 304 3 gusting 6 5.6
2020-Jan-28 02:44 304 4 gusting 8 6.1
2020-Jan-28 02:39 008 3 gusting 8 6.1
2020-Jan-28 02:34 333 3 gusting 9 6.1
2020-Jan-28 02:29 327 3 gusting 9 6.1
2020-Jan-28 02:24 324 3 gusting 7 6.1
2020-Jan-28 02:19 324 3 gusting 13 6.1
2020-Jan-28 02:14 345 3 gusting 13 6.1
2020-Jan-28 02:09 308 3 gusting 10 6.1
2020-Jan-28 02:04 314 2 gusting 7 6.1
2020-Jan-28 01:59 329 2 gusting 7 6.1
2020-Jan-28 01:54 329 2 gusting 5 6.1
2020-Jan-28 01:49 323 2 gusting 6 6.1
2020-Jan-28 01:44 330 3 gusting 6 6.1
2020-Jan-28 01:39 314 3 gusting 6 6.1
2020-Jan-28 01:34 314 3 gusting 7 6.1
2020-Jan-28 01:29 027 3 gusting 11 6.1
2020-Jan-28 01:24 300 3 gusting 11 6.1
2020-Jan-28 01:19 304 1 gusting 6 6.1
2020-Jan-28 01:14 342 2 gusting 7 6.7
2020-Jan-28 01:09 319 2 gusting 7 6.7
2020-Jan-28 01:04 293 1 gusting 5 6.7
2020-Jan-28 00:59 338 2 gusting 6 6.7
2020-Jan-28 00:54 315 3 gusting 6 6.7
2020-Jan-28 00:49 329 3 gusting 6 6.7
2020-Jan-28 00:44 349 3 gusting 6 6.7
2020-Jan-28 00:39 304 3 gusting 9 6.7
2020-Jan-28 00:34 339 3 gusting 10 6.7
2020-Jan-28 00:29 345 3 gusting 10 6.7
2020-Jan-28 00:24 030 2 gusting 8 6.7
2020-Jan-28 00:19 302 1 gusting 8 6.7
2020-Jan-28 00:14 326 2 gusting 8 6.7
2020-Jan-28 00:09 326 2 gusting 8 6.7
2020-Jan-28 00:04 326 2 gusting 8 6.7
2020-Jan-27 23:59 020 2 gusting 6 7.2
2020-Jan-27 23:54 311 2 gusting 6 7.2
2020-Jan-27 23:49 302 2 gusting 6 7.2
2020-Jan-27 23:44 342 2 gusting 6 7.2
2020-Jan-27 23:39 333 2 gusting 6 7.2
2020-Jan-27 23:34 309 1 gusting 6 7.2
2020-Jan-27 23:29 337 1 gusting 5 7.2
2020-Jan-27 23:24 003 1 gusting 5 7.2
2020-Jan-27 23:19 298 2 gusting 9 7.2
2020-Jan-27 23:14 316 2 gusting 9 7.8
2020-Jan-27 23:09 336 2 gusting 7 7.8
2020-Jan-27 23:04 335 1 gusting 7 7.8
2020-Jan-27 22:59 316 0 gusting 4 7.8
2020-Jan-27 22:54 313 1 gusting 6 7.8
2020-Jan-27 22:49 317 1 gusting 6 7.8
2020-Jan-27 22:44 359 1 gusting 5 7.8
2020-Jan-27 22:39 339 2 gusting 6 8.3
2020-Jan-27 22:34 332 2 gusting 6 8.3
2020-Jan-27 22:29 301 2 gusting 6 8.3
2020-Jan-27 22:24 308 1 gusting 5 8.3
2020-Jan-27 22:19 329 0 gusting 2 8.3
2020-Jan-27 22:14 318 1 gusting 4 8.3
2020-Jan-27 22:09 323 1 gusting 4 8.9
2020-Jan-27 22:04 352 0 gusting 2 8.3
2020-Jan-27 21:59 314 8.9
2020-Jan-27 21:54 338 8.9
2020-Jan-27 21:49 346 8.9
2020-Jan-27 21:44 315 8.9
2020-Jan-27 21:39 314 9.4
2020-Jan-27 21:34 334 9.4
2020-Jan-27 21:28 315 9.4
2020-Jan-27 21:23 291 0 gusting 2 9.4
2020-Jan-27 21:18 222 0 gusting 4 9.4
2020-Jan-27 21:13 180 0 gusting 4 9.4
2020-Jan-27 21:08 222 0 gusting 4 9.4
2020-Jan-27 21:03 285 0 gusting 4 9.4
2020-Jan-27 20:58 248 0 gusting 3 9.4
2020-Jan-27 20:53 298 0 gusting 3 9.4
2020-Jan-27 20:48 283 0 gusting 3 10.0
2020-Jan-27 20:43 305 0 gusting 4 10.0
2020-Jan-27 20:38 311 1 gusting 6 10.0
2020-Jan-27 20:33 176 1 gusting 6 10.0
2020-Jan-27 20:28 332 1 gusting 6 10.0
2020-Jan-27 20:23 326 1 gusting 5 10.0
2020-Jan-27 20:18 320 1 gusting 5 10.0
2020-Jan-27 20:13 215 1 gusting 4 10.0
2020-Jan-27 20:08 336 1 gusting 4 10.0
2020-Jan-27 20:03 333 0 gusting 4 10.0
2020-Jan-27 19:58 012 0 gusting 4 10.0
2020-Jan-27 19:53 311 0 gusting 4 10.0
2020-Jan-27 19:48 300 0 gusting 4 10.0
2020-Jan-27 19:43 336 1 gusting 5 9.4
2020-Jan-27 19:38 201 1 gusting 6 9.4
2020-Jan-27 19:33 297 1 gusting 6 9.4
2020-Jan-27 19:28 315 2 gusting 7 9.4
2020-Jan-27 19:23 227 3 gusting 7 9.4
2020-Jan-27 19:18 305 2 gusting 6 9.4
2020-Jan-27 19:13 308 1 gusting 6 9.4
2020-Jan-27 19:08 305 1 gusting 4 10.0
2020-Jan-27 19:03 298 2 gusting 6 10.0
2020-Jan-27 18:58 304 3 gusting 6 10.0
2020-Jan-27 18:53 243 2 gusting 6 10.6
2020-Jan-27 18:48 316 3 gusting 11 10.6
2020-Jan-27 18:43 304 4 gusting 11 10.6
2020-Jan-27 18:38 313 2 gusting 11 10.0
2020-Jan-27 18:33 323 0 gusting 7 10.0
2020-Jan-27 18:28 300 1 gusting 7 10.0
2020-Jan-27 18:23 229 2 gusting 7 10.6
2020-Jan-27 18:18 236 1 gusting 6 10.6
2020-Jan-27 18:13 166 1 gusting 9 10.0
2020-Jan-27 18:08 214 2 gusting 9 10.0
2020-Jan-27 18:03 294 1 gusting 7 10.0
2020-Jan-27 17:58 203 1 gusting 6 10.0
2020-Jan-27 17:53 300 2 gusting 7 10.0
2020-Jan-27 17:48 215 2 gusting 7 9.4
2020-Jan-27 17:43 323 2 gusting 6 10.0
2020-Jan-27 17:38 211 2 gusting 6 10.0
2020-Jan-27 17:33 197 1 gusting 6 10.0
2020-Jan-27 17:28 175 1 gusting 5 10.0
2020-Jan-27 17:23 359 1 gusting 6 10.0
2020-Jan-27 17:18 221 1 gusting 6 10.0
2020-Jan-27 17:13 173 1 gusting 6 10.0
2020-Jan-27 17:08 175 1 gusting 6 10.0
2020-Jan-27 17:03 239 0 gusting 4 9.4
2020-Jan-27 16:58 207 0 gusting 4 9.4
2020-Jan-27 16:53 146 0 gusting 4 9.4
2020-Jan-27 16:48 315 0 gusting 4 9.4
2020-Jan-27 16:43 153 0 gusting 4 8.9
2020-Jan-27 16:38 187 1 gusting 4 8.3
2020-Jan-27 16:32 337 1 gusting 5 8.3
2020-Jan-27 16:27 221 0 gusting 5 8.3
2020-Jan-27 16:22 236 0 gusting 3 8.3
2020-Jan-27 16:17 208 1 gusting 6 7.8
2020-Jan-27 16:12 212 1 gusting 6 7.8
2020-Jan-27 16:07 313 1 gusting 5 7.8
2020-Jan-27 16:02 172 1 gusting 5 7.8
2020-Jan-27 15:57 103 0 gusting 3 7.2
2020-Jan-27 15:52 132 0 gusting 4 7.2
2020-Jan-27 15:47 217 0 gusting 4 7.2
2020-Jan-27 15:42 165 0 gusting 3 7.2
2020-Jan-27 15:37 165 0 gusting 3 7.2
2020-Jan-27 15:32 149 0 gusting 3 7.2
2020-Jan-27 15:27 212 0 gusting 2 7.2
2020-Jan-27 15:22 288 0 gusting 1 7.2
2020-Jan-27 15:17 285 0 gusting 1 6.7
2020-Jan-27 15:12 317 0 gusting 2 6.7
2020-Jan-27 15:07 211 0 gusting 2 6.1
2020-Jan-27 15:02 322 0 gusting 3 6.1
2020-Jan-27 14:57 255 0 gusting 3 6.1
2020-Jan-27 14:52 316 5.6
2020-Jan-27 14:47 313 0 gusting 2 5.6
2020-Jan-27 14:42 221 0 gusting 2 5.0
2020-Jan-27 14:37 232 0 gusting 2 5.0
2020-Jan-27 14:32 216 0 gusting 4 5.0
2020-Jan-27 14:27 315 0 gusting 4 4.4
2020-Jan-27 14:22 321 0 gusting 2 3.9
2020-Jan-27 14:17 219 0 gusting 2 3.9
2020-Jan-27 14:12 174 3.3
2020-Jan-27 14:06 284 3.3
2020-Jan-27 14:01 227 3.3
2020-Jan-27 13:56 307 2.8
2020-Jan-27 13:51 221 2.8
2020-Jan-27 13:46 210 2.8
2020-Jan-27 13:41 214 2.2
2020-Jan-27 13:36 200 2.2
2020-Jan-27 13:31 233 2.2
2020-Jan-27 13:26 357 1.7
2020-Jan-27 13:21 229 1.7
2020-Jan-27 13:16 229 1.7
2020-Jan-27 13:11 229 1.1
2020-Jan-27 13:06 207 0.6
2020-Jan-27 13:00 235 0.6
2020-Jan-27 12:55 226 0.6
2020-Jan-27 12:50 195 0.6
2020-Jan-27 12:45 245 0.6
2020-Jan-27 12:40 226 0.6
2020-Jan-27 12:35 125 0.6
2020-Jan-27 12:30 169 0.6
2020-Jan-27 12:25 256 -0.0
2020-Jan-27 12:20 203 -0.0
2020-Jan-27 12:15 211 -0.0
2020-Jan-27 12:10 245 -0.6
2020-Jan-27 12:05 231 -0.6
2020-Jan-27 12:00 211 -0.6
2020-Jan-27 11:55 214 -0.6
2020-Jan-27 11:50 219 -0.6
2020-Jan-27 11:45 221 -0.6
2020-Jan-27 11:40 220 -0.6
2020-Jan-27 11:34 307 -0.6
2020-Jan-27 11:29 307 -0.0
2020-Jan-27 11:24 307 -0.0
2020-Jan-27 11:19 243 -0.0
2020-Jan-27 11:14 249 -0.0
2020-Jan-27 11:09 235 -0.0
2020-Jan-27 11:04 271 -0.0
2020-Jan-27 10:59 271 -0.0
2020-Jan-27 10:54 158 -0.0
2020-Jan-27 10:49 153 -0.0
2020-Jan-27 10:44 222 -0.0
2020-Jan-27 10:38 231 -0.0
2020-Jan-27 10:33 228 -0.0
2020-Jan-27 10:28 230 -0.0
2020-Jan-27 10:23 253 -0.0
2020-Jan-27 10:18 183 -0.0
2020-Jan-27 10:13 183 -0.0
2020-Jan-27 10:08 228 -0.0
2020-Jan-27 10:03 240 -0.0
2020-Jan-27 09:58 210 -0.0
2020-Jan-27 09:53 232 -0.6
2020-Jan-27 09:48 255 -0.6
2020-Jan-27 09:42 215 -0.0
2020-Jan-27 09:38 215 -0.0
2020-Jan-27 09:32 228 -0.0
2020-Jan-27 09:27 228 0.6
2020-Jan-27 09:22 188 0.6
2020-Jan-27 09:17 187 0.6
2020-Jan-27 09:12 163 0.6
2020-Jan-27 09:07 219 0.6
2020-Jan-27 09:02 232 0.6
2020-Jan-27 08:57 232 0.6
2020-Jan-27 08:52 240 -0.0
2020-Jan-27 08:47 226 -0.0
2020-Jan-27 08:42 191 -0.0
2020-Jan-27 08:37 191 -0.0
2020-Jan-27 08:31 176 -0.0
2020-Jan-27 08:26 124 -0.0
2020-Jan-27 08:21 098 -0.0
2020-Jan-27 08:16 138 -0.0
2020-Jan-27 08:11 139 -0.0
2020-Jan-27 08:06 139 0.6
2020-Jan-27 08:01 164 0.6
2020-Jan-27 07:56 164 0.6
2020-Jan-27 07:51 163 1.1
2020-Jan-27 07:46 164 1.1
2020-Jan-27 07:40 163 1.1
2020-Jan-27 07:35 225 1.7
2020-Jan-27 07:30 224 1.7
2020-Jan-27 07:25 226 1.7
2020-Jan-27 07:20 224 1.7
2020-Jan-27 07:15 210 1.7
2020-Jan-27 07:10 208 1.7
2020-Jan-27 07:05 210 1.7
2020-Jan-27 07:00 210 1.7
2020-Jan-27 06:55 207 1.7
2020-Jan-27 06:50 183 1.7
2020-Jan-27 06:45 183 1.7
2020-Jan-27 06:40 129 1.7
2020-Jan-27 06:35 130 1.7
2020-Jan-27 06:30 129 2.2
2020-Jan-27 06:25 218 2.2
2020-Jan-27 06:20 218 2.2
2020-Jan-27 06:15 218 2.2
2020-Jan-27 06:10 211 2.2
2020-Jan-27 06:05 217 2.2
2020-Jan-27 06:00 219 2.2
2020-Jan-27 05:54 221 2.2
2020-Jan-27 05:49 177 2.2
2020-Jan-27 05:45 178 2.2
2020-Jan-27 05:39 240 2.2
2020-Jan-27 05:34 223 1.7
2020-Jan-27 05:29 222 1.7
2020-Jan-27 05:24 237 1.1
2020-Jan-27 05:19 238 1.1
2020-Jan-27 05:14 238 1.1
2020-Jan-27 05:09 238 1.1
2020-Jan-27 05:04 238 1.1
2020-Jan-27 04:59 238 1.7
2020-Jan-27 04:54 238 1.7
2020-Jan-27 04:48 238 1.7
2020-Jan-27 04:43 238 1.7
2020-Jan-27 04:38 238 1.7
2020-Jan-27 04:33 238 1.7
2020-Jan-27 04:28 233 1.1
2020-Jan-27 04:23 023 1.1
2020-Jan-27 04:18 023 1.1
2020-Jan-27 04:13 023 1.1
2020-Jan-27 04:08 023 1.1
2020-Jan-27 04:02 023 1.1
2020-Jan-27 03:57 023 1.1
2020-Jan-27 03:52 023 1.7
2020-Jan-27 03:46 023 1.7
2020-Jan-27 03:41 023 1.7
2020-Jan-27 03:36 023 2.2
2020-Jan-27 03:31 023 2.2
2020-Jan-27 03:26 023 2.8
2020-Jan-27 03:21 023 2.8
2020-Jan-27 03:16 023 3.3
2020-Jan-27 03:11 023 3.3
2020-Jan-27 03:06 023 3.3
2020-Jan-27 03:01 023 3.9
2020-Jan-27 02:56 023 3.9
2020-Jan-27 02:51 347 3.9
2020-Jan-27 02:46 347 4.4
2020-Jan-27 02:40 347 4.4
2020-Jan-27 02:35 347 4.4
2020-Jan-27 02:30 347 4.4
2020-Jan-27 02:25 347 5.0
2020-Jan-27 02:20 347 5.0
2020-Jan-27 02:15 347 5.0
2020-Jan-27 02:10 347 5.6
2020-Jan-27 02:05 347 5.6
2020-Jan-27 01:59 347 5.6
2020-Jan-27 01:54 347 5.6
2020-Jan-27 01:49 347 5.6
2020-Jan-27 01:44 347 6.1
2020-Jan-27 01:39 308 6.1
2020-Jan-27 01:34 308 6.1
2020-Jan-27 01:28 333 0 gusting 1 6.1
2020-Jan-27 01:23 318 0 gusting 1 6.1
2020-Jan-27 01:18 312 0 gusting 2 6.1
2020-Jan-27 01:13 309 6.1
2020-Jan-27 01:08 297 6.1
2020-Jan-27 01:03 297 6.1
2020-Jan-27 00:58 297 6.1
2020-Jan-27 00:52 297 6.1
2020-Jan-27 00:47 297 6.1
2020-Jan-27 00:42 297 6.7
2020-Jan-27 00:37 297 6.7
2020-Jan-27 00:32 297 6.7
2020-Jan-27 00:26 297 6.7
2020-Jan-27 00:21 297 6.7
2020-Jan-27 00:16 295 6.7
2020-Jan-27 00:10 293 6.7
2020-Jan-27 00:05 295 6.1
2020-Jan-27 00:00 295 6.1
2020-Jan-26 23:55 295 6.1
2020-Jan-26 23:50 295 6.7
2020-Jan-26 23:45 295 6.7
2020-Jan-26 23:39 295 6.7
2020-Jan-26 23:34 295 6.7
2020-Jan-26 23:29 295 6.7
2020-Jan-26 23:24 295 6.7
2020-Jan-26 23:19 304 6.7
2020-Jan-26 23:13 305 6.7
2020-Jan-26 23:08 326 6.7
2020-Jan-26 23:03 326 6.7
2020-Jan-26 22:58 326 7.2
2020-Jan-26 22:53 326 7.2
2020-Jan-26 22:48 326 7.2
2020-Jan-26 22:43 326 7.2
2020-Jan-26 22:37 326 7.8
2020-Jan-26 22:32 326 7.8
2020-Jan-26 22:27 326 7.8
2020-Jan-26 22:22 304 7.8
2020-Jan-26 22:17 303 0 gusting 1 8.3
2020-Jan-26 22:12 304 1 gusting 3 8.3
2020-Jan-26 22:07 319 1 gusting 4 8.3
2020-Jan-26 22:02 016 0 gusting 4 8.3